Location: Aranbee
(34.0885°N, 118.2342°W)
Time: 17:38:06
(UTC+00:00)

S-56A Canister/Altair - Visible Passes

Search period start: 24 September 2022 00:00
Search period end: 04 October 2022 00:00
Orbit: 637 x 2496 km, 38.9° (Epoch: 23 September)

Date Brightness Start Highest point End Pass type
(mag) Time Alt. Az. Time Alt. Az. Time Alt. Az.
24 Sep 9.9 10:10:44 27° ESE 10:10:44 27° ESE 10:13:56 10° E visible
24 Sep 8.0 12:08:11 32° WSW 12:11:58 85° NNW 12:17:32 10° ENE visible
25 Sep 10.5 09:39:52 17° E 09:39:52 17° E 09:41:23 10° E visible
25 Sep 8.2 11:37:17 55° WSW 11:39:14 88° SSE 11:45:11 10° ENE visible
26 Sep 8.3 11:06:23 81° SSE 11:06:27 81° SSE 11:12:49 10° ENE visible
26 Sep 8.3 13:03:49 10° W 13:11:00 56° N 13:16:05 10° ENE visible
27 Sep 8.9 10:35:28 55° E 10:35:28 55° E 10:40:25 10° ENE visible
27 Sep 8.3 12:32:52 20° W 12:38:16 60° N 12:43:42 10° ENE visible
28 Sep 9.7 10:04:31 34° E 10:04:31 34° E 10:08:00 10° ENE visible
28 Sep 8.4 12:01:55 34° W 12:05:31 64° NNW 12:11:20 10° ENE visible
29 Sep 10.4 09:33:32 21° ENE 09:33:32 21° ENE 09:35:30 10° ENE visible
29 Sep 8.5 11:30:57 54° WNW 11:32:42 68° NNW 11:38:58 10° ENE visible
30 Sep 10.9 09:02:33 12° ENE 09:02:33 12° ENE 09:02:58 10° ENE visible
30 Sep 8.6 10:59:58 73° N 10:59:58 73° N 11:06:33 10° ENE visible
30 Sep 8.3 12:57:24 11° WNW 13:04:49 59° N 13:10:06 10° E visible
01 Oct 9.1 10:28:59 55° NE 10:28:59 55° NE 10:34:08 10° ENE visible
01 Oct 8.5 12:26:24 21° WNW 12:32:02 60° N 12:37:42 10° E visible
02 Oct 9.8 09:58:00 36° ENE 09:58:00 36° ENE 10:01:41 10° ENE visible
02 Oct 8.6 11:55:25 34° WNW 11:59:13 61° N 12:05:17 10° E visible
03 Oct 10.4 09:27:02 22° ENE 09:27:02 22° ENE 09:29:12 10° ENE visible
03 Oct 8.7 11:24:27 51° NW 11:26:19 62° N 11:32:52 10° ENE visible
03 Oct 8.0 13:23:30 10° WNW 13:31:13 86° NNE 13:36:28 10° ESE visible
